[[{"header":{"parameterUnit":"m.s-1","parameterCategory":1,"la1":30.2991,"la2":30.254,"lo1":-89.0895,"lo2":-89.0444,"dy":0.0017,"dx":0.0017,"nx":28,"ny":28,"refTime":"2024-06-22T03:00:00:Z","depth":0,"parameterNumber":2,"parameterNumberName":"U-component_of_WINDS"},"data":[0,0,0,0,0,0,0,0,0,0,0,0,0,0,0,0,0,0,0,0,0,0,0,0,0,0,0,0,0,0,0,0,0,0,0,0,0,0,0,0,0,0,0,0,0,0,0,0,0,0,0,0,0,0,0,0,0,0,-3.0384,-3.0383,0,-3.0371,-3.0371,-3.0371,-3.0371,-3.0371,-3.0371,-3.0371,-3.0356,-3.0355,-3.0355,0,0,0,0,0,0,0,0,0,0,0,0,0,-3.0407,-3.0406,-3.0384,-3.0383,-3.0383,-3.0371,-3.0371,-3.0371,-3.0371,-3.0371,-3.0371,-3.0371,-3.0356,-3.0356,-3.0355,0,0,0,0,0,0,0,0,0,0,0,0,0,-3.0395,-3.0406,-3.0384,-3.0382,-3.0382,-3.0371,-3.0371,-3.0371,-3.0371,-3.0371,-3.0371,-3.0372,-3.0356,-3.0356,-3.0355,-3.0344,0,0,-3.0352,-3.0352,0,0,0,0,0,0,0,0,-3.0396,-3.0395,-3.0382,-3.0382,-3.0382,-3.0373,-3.0373,-3.0362,-3.0371,-3.0375,-3.0371,-3.0372,-3.0361,-3.036,-3.0357,-3.0343,-3.0343,-3.0352,-3.0352,-3.0351,-3.0351,0,0,0,0,0,0,0,-3.0397,-3.0395,-3.0378,-3.0382,-3.0382,-3.0381,-3.038,-3.0371,-3.0367,-3.0374,-3.0374,-3.0373,-3.0361,-3.0358,-3.0357,-3.0343,-3.0352,-3.0351,-3.0351,-3.035,-3.0321,-3.0321,0,0,0,0,0,0,-3.0398,-3.0396,-3.0379,-3.0378,-3.039,-3.0381,-3.0379,-3.0375,-3.0367,-3.0366,-3.0373,-3.0373,-3.0359,-3.0358,-3.0356,-3.0344,-3.0351,-3.035,-3.035,-3.0321,-3.0321,-3.0321,0,0,0,0,0,0,-3.0399,-3.0397,-3.0379,-3.0387,-3.0385,-3.038,-3.0376,-3.0375,-3.0372,-3.0366,-3.0365,-3.037,-3.0359,-3.0357,-3.0348,-3.0343,-3.035,-3.0349,-3.0322,-3.0321,-3.0321,-3.0319,0,0,0,0,0,0,-3.0399,-3.0397,-3.0393,-3.0387,-3.0384,-3.0371,-3.0375,-3.0375,-3.037,-3.0371,-3.0363,-3.0362,-3.0359,-3.0349,-3.0347,-3.0342,-3.0349,-3.0322,-3.0321,-3.0321,-3.0319,-3.0318,-3.0318,0,0,0,0,0,-3.04,-3.0392,-3.0393,-3.0391,-3.0379,-3.0371,-3.037,-3.0367,-3.037,-3.0366,-3.0362,-3.0362,-3.0344,-3.0348,-3.0345,-3.0341,-3.0322,-3.0322,-3.0321,-3.032,-3.0318,-3.0318,0,0,0,0,0,0,-3.0396,-3.0391,-3.0392,-3.0382,-3.0377,-3.0371,-3.0366,-3.0366,-3.036,-3.036,-3.0357,-3.0356,-3.0346,-3.0342,-3.0347,-3.0331,-3.0334,-3.0332,-3.0333,-3.0332,-3.0331,-3.0332,-3.0348,0,0,0,0,0,-3.0395,-3.0389,-3.0384,-3.0376,-3.0374,-3.037,-3.0366,-3.0366,-3.036,-3.0358,-3.0353,-3.0348,-3.0341,-3.0336,-3.033,-3.0319,-3.0318,-3.0315,-3.0314,-3.0313,-3.0312,-3.0307,-3.0306,-3.0319,-3.0319,-3.0319,0,0,-3.039,-3.0387,-3.0383,-3.0375,-3.0371,-3.0365,-3.0368,-3.0361,-3.0357,-3.0356,-3.0347,-3.0344,-3.0338,-3.0328,-3.0323,-3.0324,-3.0308,-3.0312,-3.0312,-3.0311,-3.0306,-3.0305,-3.0304,-3.0318,-3.0318,-3.0319,0,0,-3.0379,-3.0376,-3.0369,-3.0366,-3.0361,-3.0359,-3.0357,-3.0352,-3.035,-3.0341,-3.0341,-3.0336,-3.0324,-3.032,-3.0316,-3.0305,-3.0305,-3.0303,-3.0299,-3.0294,-3.0293,-3.0292,-3.0289,-3.0288,-3.0302,-3.0302,-3.0302,0,-3.0374,-3.0365,-3.0365,-3.0359,-3.0355,-3.0356,-3.0349,-3.0346,-3.0338,-3.0336,-3.0338,-3.0324,-3.032,-3.0309,-3.0307,-3.0304,-3.0302,-3.0304,-3.0293,-3.0292,-3.0292,-3.0288,-3.0287,-3.0302,-3.0302,-3.0302,-3.0302,0,-3.036,-3.0354,-3.0349,-3.0343,-3.0339,-3.0332,-3.0331,-3.0327,-3.0327,-3.0325,-3.0316,-3.0312,-3.0305,-3.0302,-3.0301,-3.0292,-3.0293,-3.0294,-3.0297,-3.029,-3.0287,-3.0286,-3.0302,-3.0302,-3.0302,-3.0302,0,0,-3.0344,-3.034,-3.0338,-3.0336,-3.0332,-3.0327,-3.0321,-3.0315,-3.0312,-3.0307,-3.0302,-3.0293,-3.0294,-3.029,-3.0289,-3.0285,-3.0278,-3.0287,-3.0287,-3.0285,-3.0268,-3.0267,-3.0265,-3.0278,-3.0278,-3.0278,-3.0268,0,-3.0333,-3.0323,-3.0323,-3.0313,-3.0308,-3.031,-3.0304,-3.0301,-3.0299,-3.0294,-3.0292,-3.0286,-3.0289,-3.0286,-3.0282,-3.0279,-3.0274,-3.028,-3.0273,-3.0272,-3.0274,-3.0264,-3.0262,-3.0254,-3.0267,-3.0267,-3.0267,0,-3.0318,-3.0315,-3.0304,-3.0302,-3.03,-3.0295,-3.029,-3.0286,-3.0282,-3.0281,-3.0278,-3.0278,-3.0272,-3.0275,-3.0267,-3.0271,-3.0268,-3.0266,-3.0266,-3.0265,-3.0269,-3.0262,-3.0251,-3.025,-3.0265,-3.0265,-3.0265,0,-3.0308,-3.0301,-3.0294,-3.0292,-3.0289,-3.0286,-3.0284,-3.0281,-3.0278,-3.0274,-3.0272,-3.0267,-3.0264,-3.026,-3.0259,-3.0262,-3.0251,-3.0254,-3.025,-3.025,-3.0246,-3.0246,-3.0234,-3.0245,-3.0245,-3.0245,-3.0245,0,-3.0295,-3.0289,-3.029,-3.0286,-3.0279,-3.028,-3.0273,-3.0272,-3.0269,-3.0265,-3.0266,-3.0261,-3.026,-3.0256,-3.0255,-3.0248,-3.0247,-3.0246,-3.0245,-3.0245,-3.0246,-3.0243,-3.0244,-3.0245,-3.0245,-3.0245,-3.0245,0,-3.0283,-3.0283,-3.0276,-3.0275,-3.0274,-3.0269,-3.0268,-3.0264,-3.0263,-3.0257,-3.0256,-3.0255,-3.025,-3.0248,-3.0242,-3.0241,-3.0234,-3.0234,-3.0235,-3.0235,-3.0231,-3.0231,-3.0216,-3.0214,-3.0226,-3.0226,-3.0226,0,-3.0274,-3.027,-3.0268,-3.0266,-3.0265,-3.0261,-3.0258,-3.0259,-3.0256,-3.0253,-3.0249,-3.0245,-3.0241,-3.0233,-3.0231,-3.0227,-3.0227,-3.0222,-3.0226,-3.0227,-3.0227,-3.0227,-3.0227,-3.0221,-3.0221,-3.0221,-3.0221,0,-3.0259,-3.026,-3.0257,-3.0254,-3.0252,-3.0249,-3.0247,-3.0245,-3.0245,-3.0242,-3.0238,-3.0235,-3.023,-3.0225,-3.0221,-3.0219,-3.022,-3.022,-3.0218,-3.0218,-3.0219,-3.0219,-3.0233,-3.022,-3.022,-3.022,-3.022,-3.022,-3.0249,-3.0245,-3.0244,-3.0241,-3.024,-3.0238,-3.0235,-3.0234,-3.0231,-3.0227,-3.0228,-3.0223,-3.0221,-3.0215,-3.0213,-3.021,-3.0211,-3.0209,-3.0208,-3.0208,-3.0208,-3.022,-3.0209,-3.0209,-3.0209,-3.0209,-3.0209,0,-3.0234,-3.0234,-3.0231,-3.0229,-3.0226,-3.0229,-3.0227,-3.0225,-3.0221,-3.0219,-3.0216,-3.0211,-3.0207,-3.0206,-3.0202,-3.0199,-3.02,-3.0198,-3.0198,-3.0198,-3.0207,-3.0208,-3.0198,-3.0198,-3.0198,-3.0198,-3.0198,-3.0198,-3.0226,-3.0221,-3.0222,-3.0216,-3.0216,-3.0212,-3.0211,-3.021,-3.0208,-3.0204,-3.0201,-3.02,-3.0199,-3.0195,-3.0192,-3.0192,-3.019,-3.0189,-3.0188,-3.0196,-3.0197,-3.0198,-3.02,-3.0188,-3.0188,-3.018,-3.018,-3.018]},{"header":{"parameterUnit":"m.s-1","parameterCategory":1,"la1":30.2991,"la2":30.254,"lo1":-89.0895,"lo2":-89.0444,"dy":0.0017,"dx":0.0017,"nx":28,"ny":28,"refTime":"2024-06-22T03:00:00:Z","depth":0,"parameterNumber":3,"parameterNumberName":"V-component_of_WINDS"},"data":[0,0,0,0,0,0,0,0,0,0,0,0,0,0,0,0,0,0,0,0,0,0,0,0,0,0,0,0,0,0,0,0,0,0,0,0,0,0,0,0,0,0,0,0,0,0,0,0,0,0,0,0,0,0,0,0,0,0,-0.7938,-0.7937,0,-0.79,-0.79,-0.7899,-0.7836,-0.7834,-0.7833,-0.7832,-0.7794,-0.7794,-0.7794,0,0,0,0,0,0,0,0,0,0,0,0,0,-0.7956,-0.7956,-0.7938,-0.7937,-0.7937,-0.79,-0.79,-0.7899,-0.7836,-0.7834,-0.7833,-0.7831,-0.7794,-0.7794,-0.7794,0,0,0,0,0,0,0,0,0,0,0,0,0,-0.7936,-0.7956,-0.7938,-0.7901,-0.7897,-0.79,-0.7899,-0.7899,-0.7836,-0.7834,-0.7832,-0.7831,-0.7794,-0.7794,-0.7794,-0.7831,0,0,-0.7795,-0.7795,0,0,0,0,0,0,0,0,-0.7938,-0.7936,-0.7907,-0.7903,-0.7899,-0.7871,-0.7892,-0.7876,-0.7836,-0.7859,-0.7832,-0.783,-0.7821,-0.7819,-0.7816,-0.7829,-0.7827,-0.7795,-0.7795,-0.7795,-0.7795,0,0,0,0,0,0,0,-0.7939,-0.7937,-0.7923,-0.7907,-0.7902,-0.7886,-0.7882,-0.7889,-0.7851,-0.7857,-0.7852,-0.7849,-0.7819,-0.7816,-0.7814,-0.7827,-0.7795,-0.7795,-0.7795,-0.7795,-0.7868,-0.787,0,0,0,0,0,0,-0.7946,-0.7939,-0.7924,-0.7922,-0.7914,-0.7887,-0.7882,-0.7882,-0.785,-0.7844,-0.785,-0.7846,-0.7816,-0.7814,-0.7813,-0.7853,-0.7795,-0.7795,-0.7795,-0.7866,-0.7868,-0.787,0,0,0,0,0,0,-0.7946,-0.7945,-0.7926,-0.7929,-0.7925,-0.7889,-0.7889,-0.7882,-0.7879,-0.7845,-0.7838,-0.7854,-0.7815,-0.7813,-0.7827,-0.7851,-0.7795,-0.7795,-0.7864,-0.7867,-0.7869,-0.7935,0,0,0,0,0,0,-0.7947,-0.7946,-0.7959,-0.793,-0.7925,-0.794,-0.7891,-0.7882,-0.7879,-0.7873,-0.7847,-0.7841,-0.7813,-0.7827,-0.7827,-0.785,-0.7795,-0.7861,-0.7865,-0.7868,-0.7931,-0.794,-0.7948,0,0,0,0,0,-0.7948,-0.7979,-0.796,-0.7959,-0.7941,-0.7942,-0.7939,-0.7907,-0.7881,-0.7895,-0.7873,-0.7842,-0.7848,-0.7829,-0.7828,-0.7852,-0.786,-0.7864,-0.7868,-0.7927,-0.7938,-0.7948,0,0,0,0,0,0,-0.8013,-0.7975,-0.7953,-0.7976,-0.7962,-0.7931,-0.7947,-0.7919,-0.7913,-0.7908,-0.7868,-0.7862,-0.7882,-0.7868,-0.7847,-0.7886,-0.7849,-0.7853,-0.7894,-0.7905,-0.7913,-0.7916,-0.7796,0,0,0,0,0,-0.803,-0.8033,-0.8,-0.8023,-0.8017,-0.7984,-0.7982,-0.7958,-0.7943,-0.7937,-0.7917,-0.7903,-0.7902,-0.7902,-0.79,-0.7928,-0.7922,-0.7944,-0.7953,-0.796,-0.7964,-0.7979,-0.7988,-0.7884,-0.7884,-0.7884,0,0,-0.8065,-0.8045,-0.8049,-0.8036,-0.8022,-0.8027,-0.7979,-0.7986,-0.7989,-0.7938,-0.795,-0.7935,-0.7917,-0.7939,-0.7947,-0.7928,-0.7992,-0.7965,-0.7971,-0.7972,-0.7984,-0.7994,-0.8003,-0.7887,-0.7886,-0.7886,0,0,-0.8132,-0.8116,-0.8134,-0.8122,-0.8102,-0.8079,-0.8084,-0.8056,-0.8044,-0.8055,-0.8017,-0.802,-0.8019,-0.8008,-0.8003,-0.8065,-0.8036,-0.8065,-0.811,-0.8124,-0.8132,-0.8139,-0.8162,-0.8171,-0.8069,-0.8069,-0.8069,0,-0.8178,-0.8183,-0.8147,-0.8156,-0.8151,-0.8105,-0.8123,-0.8112,-0.8094,-0.8091,-0.807,-0.8068,-0.8052,-0.8071,-0.8086,-0.8083,-0.8087,-0.8068,-0.8134,-0.8141,-0.8147,-0.8168,-0.8177,-0.8073,-0.8072,-0.8072,-0.8072,0,-0.8241,-0.8246,-0.8262,-0.8245,-0.8242,-0.8255,-0.8221,-0.8222,-0.8198,-0.8178,-0.819,-0.817,-0.8162,-0.8165,-0.8141,-0.818,-0.8169,-0.8141,-0.8104,-0.8161,-0.818,-0.8188,-0.8078,-0.8077,-0.8076,-0.8075,0,0,-0.8349,-0.831,-0.8317,-0.8309,-0.8283,-0.8286,-0.8298,-0.829,-0.8292,-0.828,-0.8289,-0.8289,-0.8263,-0.8257,-0.8232,-0.8244,-0.8295,-0.8215,-0.8214,-0.8231,-0.8337,-0.8358,-0.8368,-0.8275,-0.8277,-0.8278,-0.8338,0,-0.8411,-0.8428,-0.8395,-0.8421,-0.8424,-0.838,-0.839,-0.8376,-0.8357,-0.8357,-0.8336,-0.8337,-0.8302,-0.8298,-0.8308,-0.8287,-0.8316,-0.8282,-0.8284,-0.8284,-0.8291,-0.8378,-0.8401,-0.8459,-0.8346,-0.8347,-0.8348,0,-0.8485,-0.8477,-0.8503,-0.8476,-0.8476,-0.8486,-0.8476,-0.8477,-0.846,-0.8445,-0.8438,-0.8408,-0.8417,-0.8381,-0.8393,-0.8371,-0.837,-0.8359,-0.8361,-0.836,-0.832,-0.8381,-0.8476,-0.8486,-0.8359,-0.8358,-0.8357,0,-0.8562,-0.8557,-0.8572,-0.8566,-0.8535,-0.8543,-0.853,-0.8511,-0.8508,-0.85,-0.8498,-0.849,-0.8487,-0.8482,-0.8451,-0.8427,-0.8467,-0.8428,-0.8456,-0.8457,-0.8467,-0.8467,-0.8565,-0.8465,-0.8465,-0.8465,-0.8465,0,-0.8635,-0.8653,-0.8606,-0.8615,-0.8633,-0.8595,-0.8615,-0.8598,-0.8581,-0.8587,-0.8547,-0.8553,-0.8511,-0.8513,-0.8488,-0.8503,-0.8501,-0.849,-0.8483,-0.8494,-0.8495,-0.8493,-0.8489,-0.8467,-0.8467,-0.8466,-0.8466,0,-0.8724,-0.8693,-0.8706,-0.8676,-0.8668,-0.8684,-0.8657,-0.8665,-0.8643,-0.865,-0.8649,-0.8615,-0.8614,-0.8583,-0.8576,-0.8559,-0.8584,-0.857,-0.859,-0.8586,-0.8616,-0.8614,-0.8716,-0.8728,-0.862,-0.8621,-0.8622,0,-0.8773,-0.8785,-0.8756,-0.8757,-0.8746,-0.8747,-0.8744,-0.8707,-0.8706,-0.8687,-0.8697,-0.8693,-0.8688,-0.8689,-0.8664,-0.8658,-0.8644,-0.868,-0.8643,-0.8653,-0.8645,-0.8645,-0.8646,-0.8688,-0.869,-0.8691,-0.8692,0,-0.8864,-0.8848,-0.8845,-0.8837,-0.8834,-0.8826,-0.8815,-0.8818,-0.8777,-0.8778,-0.8776,-0.8773,-0.8765,-0.8762,-0.8751,-0.8738,-0.8709,-0.8703,-0.871,-0.8721,-0.8733,-0.8727,-0.8612,-0.8701,-0.87,-0.87,-0.8699,-0.8699,-0.8934,-0.8944,-0.8924,-0.8922,-0.891,-0.8901,-0.8907,-0.8885,-0.8884,-0.8875,-0.8853,-0.8855,-0.8837,-0.882,-0.881,-0.8811,-0.8793,-0.8802,-0.8804,-0.8807,-0.8813,-0.8732,-0.8809,-0.8809,-0.8808,-0.8808,-0.8808,0,-0.9024,-0.9009,-0.9007,-0.8994,-0.8992,-0.8963,-0.895,-0.8951,-0.8954,-0.8939,-0.8935,-0.8934,-0.893,-0.8905,-0.8898,-0.8904,-0.889,-0.8904,-0.8904,-0.8901,-0.883,-0.8825,-0.8915,-0.8915,-0.8915,-0.8915,-0.8915,-0.8915,-0.907,-0.9084,-0.9066,-0.9073,-0.9058,-0.906,-0.9055,-0.9047,-0.9035,-0.9035,-0.9032,-0.9015,-0.8996,-0.8988,-0.8984,-0.8976,-0.8976,-0.8994,-0.8982,-0.8916,-0.8906,-0.8896,-0.8892,-0.8994,-0.8995,-0.9054,-0.9054,-0.9055]}]]